Вернуться в каталог

STARLINK-5550

АктивенСвязьSSO
NORAD 56361·PAYLOAD·🇺🇸 United States

Запущен Apr 27, 2023 с Vandenberg Space Force Base

Loading…

Ближайшие Пролёты (ближайшие 24 часа)

TLE

СвежийSource: CelesTrak SupGP

Эпоха: Sep 15, 2026, 03:03 UTC

1 56361C 23058AW  26258.12756944 -.00051109  00000+0 -31089-2 0  2588
2 56361  97.2854 252.2728 0001328  75.2151 235.4129 15.10555106    17

Отслеживайте STARLINK-5550 в реальном времени с AllMySat

Download on the App Store